Hourly Data Report for September 07, 2020

BRIER ISLAND
NOVA SCOTIA
Current Station Operator: ECCC - MSC

44°17'09.000" N
66°20'48.000" W
15.80 m
8200604
71988
WVU

Download Data

Hourly Data (September 2020)
Hourly Data Report for September 7, 2020
TIME Temp Definition
°C
Dew Point Definition
°C
Rel Hum Definition
%
Wind Dir Definition
10's deg

Wind Spd Definition
km/h
Visibility Definition
km
Stn Press Definition
kPa
Hmdx Definition


Wind Chill Definition


Weather Definition


00:00 12.3 12.3 100 14 15   102.17     LegendNANA
01:00 12.4 12.4 100 15 12   102.16     LegendNANA
02:00 12.2 12.2 100 14 17   102.18     LegendNANA
03:00 11.8 11.8 100 14 12   102.20     LegendNANA
04:00 11.1 11.1 100 11 6   102.20     LegendNANA
05:00 11.1 11.1 100 11 22   102.15     LegendNANA
06:00 11.9 11.9 100 14 19   102.16     LegendNANA
07:00 12.0 12.0 100 12 18   102.19     LegendNANA
08:00 13.3 13.3 100 14 14   102.22     LegendNANA
09:00 14.6 14.6 100 13 19   102.19     LegendNANA
10:00 15.3 13.9 91 15 17   102.26     LegendNANA
11:00 15.4 14.4 94 15 19   102.25     LegendNANA
12:00 16.7 15.0 89 15 18   102.18     LegendNANA
13:00 18.0 15.7 86 15 19   102.14     LegendNANA
14:00 20.0 14.8 72 16 19   102.09     LegendNANA
15:00 20.4 9.0 48 16 22   102.03     LegendNANA
16:00 19.5 11.6 60 16 19   101.96     LegendNANA
17:00 18.9 11.1 61 16 17   101.94     LegendNANA
18:00 16.0 10.7 71 15 14   101.95     LegendNANA
19:00 14.4 11.8 84 15 16   101.94     LegendNANA
20:00 14.9 13.9 94 15 20   101.97     LegendNANA
21:00 15.7 11.8 78 14 13   102.03     LegendNANA
22:00 15.0 14.1 94 13 16   102.00     LegendNANA
23:00 15.6 15.4 99 13 23   101.97     LegendNANA

Notes on Data Quality.

Legend

  • E = Estimated
  • M = Missing
  • NA = Not Available*
  • [empty] = Indicates an unobserved value
Date modified: